Location: Pian di Sc�
(43.6333°N, 11.5500°E)
Time: 12:12:44
(UTC+00:00)

Cosmos 1602 Rocket - Pass Details

Date: 07 August 2020
Orbit: 603 x 634 km, 82.5° (Epoch: 25 September)

Event Time Altitude Azimuth Distance (km) Brightness Sun altitude
Rises 02:36:04 0° 352° (N) 2,898 7.5 -15.1°
Reaches altitude 10° 02:38:19 10° 352° (N) 1,983 6.6 -14.8°
Maximum altitude 02:42:42 86° 82° (E) 618 3.5 -14.2°
Drops below altitude 10° 02:47:02 10° 172° (S) 1,950 5.8 -13.6°
Enters shadow 02:48:50 - 172° (S) 2,686 6.5 -13.4°
